Urmia, Iran

5:35 AM IRST on January 22, 2017 (GMT +0330)
Orumieh

Weather History for OITR - March, 2013

Change the Weather History Date:

Sunday, March 3, 2013

  Actual Average Record
Temperature  
Mean Temperature 42 °F -  
Max Temperature 57 °F 51 °F - ()
Min Temperature 26 °F 32 °F - ()
Degree Days  
Heating Degree Days 24    
Moisture  
Dew Point 23 °F    
Average Humidity 46    
Maximum Humidity 80    
Minimum Humidity 16    
Precipitation  
Precipitation 0.00 in 0.07 in - ()
Sea Level Pressure  
Sea Level Pressure 30.09 in    
Wind  
Wind Speed 6 mph ()    
Max Wind Speed 22 mph    
Max Gust Speed -    
Visibility 6.4 miles    
Events      
T = Trace of Precipitation, MM = Missing Value Source: Averaged Metar Reports

Daily Weather History Graph

Daily Weather History Graph

Search for Another Location

Airport or City:

Trip Planner

Search our weather history database for the weather conditions in past years. The results will help you decide how hot, cold, wet, or windy it might be!

Date:

Astronomy

Mar. 03, 2013 Rise Set
Actual Time 6:58 AM IRST 6:25 PM IRST
Civil Twilight 6:32 AM IRST 6:51 PM IRST
Nautical Twilight 6:02 AM IRST 7:22 PM IRST
Astronomical Twilight 5:31 AM IRST 7:52 PM IRST
Moon No Moon Rise 10:02 AM IRST (3/3)
Length of Visible Light 12h 19m
Length of Day
11h 26m
Waning Gibbous, 67% of the Moon is Illuminated
Mar 3
Waning Gibbous
Mar 5
Last Quarter
Mar 11
New
Mar 19
First Quarter
Mar 27
Full

Hourly Weather History & Observations

Time (IRST) Temp. Windchill Dew Point Humidity Pressure Visibility Wind Dir Wind Speed Gust Speed Precip Events Conditions
12:30 AM 32.0 °F 27.5 °F 21.2 °F 64% 30.09 in 6.2 mi West 4.6 mph - N/A   Partly Cloudy
1:20 AM 30.2 °F 23.4 °F 21.2 °F 69% 30.09 in 6.2 mi WSW 6.9 mph - N/A   Partly Cloudy
2:20 AM 30.2 °F 23.4 °F 21.2 °F 69% 30.12 in 6.2 mi WSW 6.9 mph - N/A   Partly Cloudy
3:30 AM 30 °F - 18 °F 49% 30.14 in 9 mi South 4.5 mph - -   Scattered Clouds
3:30 AM 30.2 °F 25.4 °F 17.6 °F 60% 30.09 in 6.2 mi South 4.6 mph - N/A   Partly Cloudy
4:20 AM 32.0 °F 25.6 °F 19.4 °F 60% 30.09 in 6.2 mi SW 6.9 mph - N/A   Partly Cloudy
5:20 AM 32.0 °F 25.6 °F 19.4 °F 60% 30.09 in 6.2 mi WSW 6.9 mph - N/A   Partly Cloudy
6:20 AM 28.4 °F 23.3 °F 23.0 °F 80% 30.12 in 6.2 mi WSW 4.6 mph - N/A   Partly Cloudy
6:30 AM 28.4 °F 23.3 °F 23.0 °F 80% 30.12 in 6.2 mi WSW 4.6 mph - N/A   Partly Cloudy
7:20 AM 26.6 °F 19.1 °F 19.4 °F 74% 30.12 in 6.2 mi West 6.9 mph - N/A   Scattered Clouds
7:30 AM 26.6 °F 19.1 °F 19.4 °F 74% 30.12 in 6.2 mi West 6.9 mph - N/A   Scattered Clouds
8:20 AM 37.4 °F 33.8 °F 26.6 °F 65% 30.12 in 6.2 mi SW 4.6 mph - N/A   Mostly Cloudy
8:30 AM 37.4 °F 33.8 °F 26.6 °F 65% 30.12 in 6.2 mi SW 4.6 mph - N/A   Mostly Cloudy
9:00 AM 39.2 °F 34.2 °F 24.8 °F 56% 30.12 in 6.2 mi SSE 6.9 mph - N/A   Mostly Cloudy
9:20 AM 41.0 °F 35.2 °F 30.2 °F 65% 30.12 in 6.2 mi SE 9.2 mph - N/A   Mostly Cloudy
9:30 AM 41 °F - 30 °F 55% 30.20 in 9 mi SE 8.9 mph - -   Scattered Clouds
9:30 AM 41.0 °F 35.2 °F 30.2 °F 65% 30.12 in 6.2 mi SE 9.2 mph - N/A   Mostly Cloudy
10:00 AM 44.6 °F 40.7 °F 28.4 °F 53% 30.12 in 6.2 mi East 6.9 mph - N/A   Mostly Cloudy
10:20 AM 42.8 °F - 28.4 °F 57% 30.12 in 6.2 mi Variable 2.3 mph - N/A   Mostly Cloudy
10:30 AM 42.8 °F - 28.4 °F 57% 30.12 in 6.2 mi Variable 2.3 mph - N/A   Mostly Cloudy
11:00 AM 46.4 °F - 28.4 °F 50% 30.12 in 6.2 mi Calm Calm - N/A   Mostly Cloudy
11:20 AM 48.2 °F - 23.0 °F 37% 30.12 in 6.2 mi SE 4.6 mph - N/A   Mostly Cloudy
11:30 AM 48.2 °F - 23.0 °F 37% 30.12 in 6.2 mi SE 4.6 mph - N/A   Mostly Cloudy
12:00 PM 48.2 °F - 24.8 °F 40% 30.12 in 6.2 mi East 4.6 mph - N/A   Mostly Cloudy
12:20 PM 48.2 °F - 24.8 °F 40% 30.09 in 6.2 mi East 6.9 mph - N/A   Mostly Cloudy
12:30 PM 48.2 °F - 24.8 °F 40% 30.09 in 6.2 mi East 6.9 mph - N/A   Mostly Cloudy
1:00 PM 50.0 °F - 24.8 °F 37% 30.09 in 6.2 mi ESE 4.6 mph - N/A   Mostly Cloudy
1:20 PM 51.8 °F - 19.4 °F 28% 30.06 in 6.2 mi ESE 9.2 mph - N/A   Mostly Cloudy
1:30 PM 51.8 °F - 19.4 °F 28% 30.06 in 6.2 mi ESE 9.2 mph - N/A   Mostly Cloudy
2:00 PM 51.8 °F - 24.8 °F 35% 30.06 in 6.2 mi ESE 4.6 mph - N/A   Mostly Cloudy
2:20 PM 53.6 °F - 26.6 °F 35% 30.04 in 6.2 mi SE 4.6 mph - N/A   Mostly Cloudy
2:30 PM 53.6 °F - 26.6 °F 35% 30.04 in 6.2 mi SE 4.6 mph - N/A   Mostly Cloudy
3:20 PM 57.2 °F - 23.0 °F 27% 30.04 in 6.2 mi West 6.9 mph - N/A   Mostly Cloudy
3:30 PM 56 °F - 22 °F 16% 30.04 in 9 mi West 6.7 mph - -   Scattered Clouds
3:30 PM 57.2 °F - 23.0 °F 27% 30.04 in 6.2 mi West 6.9 mph - N/A   Mostly Cloudy
4:20 PM 55.4 °F - 14.0 °F 20% 30.04 in 6.2 mi South 21.9 mph - N/A   Scattered Clouds
4:30 PM 55.4 °F - 14.0 °F 20% 30.04 in 6.2 mi South 21.9 mph - N/A   Scattered Clouds
5:20 PM 51.8 °F - 15.8 °F 24% 30.06 in 6.2 mi SW 9.2 mph - N/A   Scattered Clouds
5:30 PM 51.8 °F - 15.8 °F 24% 30.06 in 6.2 mi SW 9.2 mph - N/A   Scattered Clouds
5:50 PM 50.0 °F - 15.8 °F 26% 30.06 in 6.2 mi WSW 6.9 mph - N/A   Scattered Clouds
6:20 PM 50.0 °F - 23.0 °F 35% 30.06 in 6.2 mi West 4.6 mph - N/A   Mostly Cloudy
6:30 PM 50.0 °F - 23.0 °F 35% 30.06 in 6.2 mi West 4.6 mph - N/A   Mostly Cloudy
7:00 PM 48.2 °F - 21.2 °F 34% 30.09 in 6.2 mi SW 9.2 mph - N/A   Mostly Cloudy
7:20 PM 48.2 °F - 15.8 °F 27% 30.09 in 6.2 mi WSW 9.2 mph - N/A   Mostly Cloudy
7:30 PM 48.2 °F - 15.8 °F 27% 30.09 in 6.2 mi WSW 9.2 mph - N/A   Mostly Cloudy
8:00 PM 46.4 °F 41.1 °F 26.6 °F 46% 30.12 in 6.2 mi SSE 11.5 mph - N/A   Scattered Clouds
8:20 PM 44.6 °F 42.2 °F 23.0 °F 43% 30.12 in 6.2 mi WSW 4.6 mph - N/A   Scattered Clouds
8:30 PM 44.6 °F 42.2 °F 23.0 °F 43% 30.12 in 6.2 mi WSW 4.6 mph - N/A   Scattered Clouds
9:00 PM 44.6 °F 42.2 °F 23.0 °F 43% 30.12 in 6.2 mi WSW 4.6 mph - N/A   Scattered Clouds
9:20 PM 42.8 °F - 23.0 °F 46% 30.09 in 6.2 mi Calm Calm - N/A   Partly Cloudy
9:30 PM 43 °F - 23 °F 31% 30.13 in 9 mi Calm Calm - -   Scattered Clouds
9:30 PM 42.8 °F - 23.0 °F 46% 30.09 in 6.2 mi Calm Calm - N/A   Partly Cloudy
10:00 PM 42.8 °F 40.1 °F 23.0 °F 46% 30.09 in 6.2 mi NNW 4.6 mph - N/A   Partly Cloudy
10:20 PM 39.2 °F 35.9 °F 23.0 °F 52% 30.09 in 6.2 mi WSW 4.6 mph - N/A   Scattered Clouds
10:30 PM 39.2 °F 35.9 °F 23.0 °F 52% 30.09 in 6.2 mi WSW 4.6 mph - N/A   Scattered Clouds
11:00 PM 41.0 °F 38.0 °F 26.6 °F 57% 30.09 in 6.2 mi West 4.6 mph - N/A   Scattered Clouds
11:20 PM 41.0 °F - 26.6 °F 57% 30.06 in 6.2 mi Calm Calm - N/A   Scattered Clouds
11:30 PM 41.0 °F - 26.6 °F 57% 30.06 in 6.2 mi Calm Calm - N/A   Scattered Clouds